Location: White Plains
(41.0340°N, 73.7629°W)
Time: 20:27:45
(UTC-05:00)

N. Korean satellite - Visible Passes

Search period start: 18 February 2020 00:00
Search period end: 28 February 2020 00:00
Orbit: 456 x 505 km, 97.2° (Epoch: 18 February)

Date Brightness Start Highest point End Pass type
(mag) Time Alt. Az. Time Alt. Az. Time Alt. Az.
18 Feb 10.1 04:38:18 10° ENE 04:39:57 13° E 04:41:36 10° ESE visible
18 Feb 7.0 06:10:00 10° N 06:13:31 41° WNW 06:17:00 10° SW visible
19 Feb 6.6 05:44:19 10° NNE 05:48:03 90° SSW 05:51:45 10° SSW visible
20 Feb 8.1 05:18:57 10° NNE 05:22:30 40° E 05:26:00 10° S visible
21 Feb 9.5 04:54:03 10° NE 04:56:50 20° E 04:59:36 10° SE visible
22 Feb 6.8 06:01:08 10° N 06:04:46 53° WNW 06:08:22 10° SSW visible
23 Feb 7.0 05:35:33 10° NNE 05:39:16 69° E 05:42:56 10° S visible
24 Feb 8.6 05:10:19 10° NNE 05:13:40 31° E 05:16:59 10° SSE visible
25 Feb 9.9 04:45:40 10° NE 04:47:58 16° E 04:50:15 10° SE visible
26 Feb 6.6 05:52:18 10° N 05:55:59 70° WNW 05:59:38 10° SSW visible
27 Feb 7.5 05:26:49 10° NNE 05:30:27 52° E 05:34:02 10° S visible
